Location: Wiesbaden
(50.0830°N, 8.2500°E)
Time: 05:30:53
(UTC+01:00)

ISS - Pass Details

Date: 11 December 2019
Orbit: 411 x 421 km, 51.6° (Epoch: 15 December)

Event Time Altitude Azimuth Distance (km) Brightness Sun altitude
Rises 17:35:02 0° 285° (WNW) 2,358 1.0 -10.6°
Reaches altitude 10° 17:37:24 10° 270° (W) 1,494 0.2 -11.0°
Maximum altitude 17:40:04 22° 217° (SW) 962 -1.1 -11.4°
Drops below altitude 10° 17:42:44 10° 164° (SSE) 1,491 -0.9 -11.8°
Sets 17:45:07 0° 149° (SSE) 2,353 -0.1 -12.1°
